Tracking 19846 objects as of 18-Sep-2019
HD Live streaming from Space Station
objects crossing your sky now

FENGYUN 1C DEB

Track FENGYUN 1C DEB now!
10-day predictions


NORAD ID: 31994
Int'l Code: 1999-025CPX
Perigee: 800.2 km
Apogee: 1,037.8 km
Inclination: 98.7 °
Period: 103.2 minutes
Semi major axis: 7290 km
RCS: 0.0108 m2 (small)
Launch date: May 10, 1999
Source: People's Republic of China (PRC)
Launch site: Taiyaun Space Center, China (TSC)

Note: This is SATELLITE DEBRIS
aabbcc
Your satellite tracking list
Your tracking list is empty




NASA's NSSDC Master Catalog

Two Line Element Set (TLE):
1 31994U 99025CPX 19260.07555946 +.00000048 +00000-0 +59967-4 0  9992
2 31994 098.6910 008.6760 0163018 344.4685 015.1509 13.94797265250248
Source of the keplerian elements: AFSPC